Location: Cheching
(60.0667°N, 164.2167°W)
Time: 00:56:02
(UTC+00:00)

DX 1 - Visible Passes

Search period start: 24 January 2021 00:00
Search period end: 03 February 2021 00:00
Orbit: 618 x 631 km, 98.5° (Epoch: 23 January)

Date Brightness Start Highest point End Pass type
(mag) Time Alt. Az. Time Alt. Az. Time Alt. Az.
24 Jan ? 04:59:03 17° ESE 04:59:03 17° ESE 05:00:36 10° SE visible
24 Jan ? 06:36:18 27° SSW 06:36:18 27° SSW 06:38:18 10° SSW visible
24 Jan ? 14:24:08 10° E 14:26:53 17° NE 14:27:10 17° NE visible
24 Jan ? 15:58:01 10° SE 16:02:19 61° ENE 16:04:27 28° N visible
24 Jan ? 17:35:06 10° SSW 17:38:49 27° W 17:41:44 14° NW visible
25 Jan ? 05:17:46 22° SE 05:17:46 22° SE 05:19:56 10° SSE visible
25 Jan ? 06:55:00 25° SW 06:55:00 25° SW 06:56:53 10° SW visible
25 Jan ? 14:42:09 10° E 14:45:22 21° NE 14:46:21 19° NNE visible
25 Jan ? 16:16:38 10° SSE 16:21:00 83° ENE 16:23:37 24° NNW visible
25 Jan ? 17:54:29 10° SW 17:57:43 20° W 18:00:54 10° NW visible
26 Jan ? 05:36:28 29° SE 05:36:28 29° SE 05:39:05 10° SSE visible
26 Jan ? 07:13:42 22° WSW 07:13:42 22° WSW 07:15:22 10° SW visible
26 Jan ? 15:00:18 10° ESE 15:03:53 26° NE 15:05:32 20° NNE visible
26 Jan ? 16:35:22 10° SSE 16:39:43 73° WSW 16:42:49 19° NNW visible
26 Jan ? 18:14:10 10° WSW 18:16:40 15° W 18:19:09 10° NW visible
27 Jan ? 05:55:09 38° SSE 05:55:09 38° SSE 05:58:03 10° S visible
27 Jan ? 07:32:23 18° WSW 07:32:23 18° WSW 07:33:44 10° WSW visible
27 Jan ? 13:46:33 10° NE 13:47:25 11° NE 13:47:27 11° NE visible
27 Jan ? 15:18:33 10° ESE 15:22:27 33° ENE 15:24:44 20° N visible
27 Jan ? 16:54:13 10° S 16:58:29 53° WSW 17:02:01 15° NNW visible
28 Jan ? 04:36:34 14° E 04:36:34 14° E 04:38:05 10° ESE visible
28 Jan ? 06:13:49 46° S 06:13:49 46° S 06:16:55 10° SSW visible
28 Jan ? 07:51:04 15° W 07:51:04 15° W 07:52:00 10° WSW visible
28 Jan ? 14:03:53 10° ENE 14:05:50 13° NE 14:06:41 12° NNE visible
28 Jan ? 15:36:56 10° SE 15:41:03 43° ENE 15:43:58 18° N visible
28 Jan ? 17:13:12 10° SSW 17:17:16 38° W 17:21:15 11° NNW visible
29 Jan ? 04:55:13 19° E 04:55:13 19° E 04:57:46 10° SE visible
29 Jan ? 06:32:28 49° SSW 06:32:28 49° SSW 06:35:38 10° SSW visible
29 Jan ? 08:09:42 12° W 08:09:42 12° W 08:10:08 10° W visible
29 Jan ? 14:21:40 10° E 14:24:17 16° NE 14:25:56 13° NNE visible
29 Jan ? 15:55:24 10° SE 15:59:40 57° ENE 16:03:14 15° N visible
29 Jan ? 17:32:20 10° SSW 17:36:07 28° W 17:39:55 10° NNW visible
30 Jan ? 05:13:50 26° ESE 05:13:50 26° ESE 05:17:09 10° SSE visible
30 Jan ? 06:51:05 45° WSW 06:51:05 45° WSW 06:54:16 10° SW visible
30 Jan ? 14:39:39 10° E 14:42:45 20° NE 14:45:14 13° N visible
30 Jan ? 16:14:00 10° SSE 16:18:20 78° ENE 16:22:31 11° NNW visible
30 Jan ? 17:51:40 10° SW 17:55:01 21° W 17:58:22 10° NW visible
31 Jan ? 05:32:26 35° E 05:32:26 35° E 05:36:20 10° SSE visible
31 Jan ? 07:09:41 38° W 07:09:41 38° W 07:12:46 10° SW visible
31 Jan ? 14:57:45 10° ESE 15:01:16 24° NE 15:04:33 11° N visible
31 Jan ? 16:32:42 10° SSE 16:37:03 78° WSW 16:41:26 10° NNW visible
31 Jan ? 18:11:17 10° SW 18:13:56 16° W 18:16:37 10° NW visible
01 Feb ? 05:50:59 48° E 05:51:09 49° E 05:55:21 10° S visible
01 Feb ? 07:28:14 31° W 07:28:14 31° W 07:31:09 10° WSW visible
01 Feb ? 13:44:40 10° NE 13:44:49 10° NE 13:44:59 10° NNE visible
01 Feb ? 15:16:00 10° ESE 15:19:49 31° NE 15:23:39 10° N visible
01 Feb ? 16:51:31 10° S 16:55:48 57° WSW 17:00:07 10° NNW visible
02 Feb ? 04:32:16 13° ENE 04:32:55 14° E 04:35:07 10° ESE visible
02 Feb ? 06:09:31 63° ENE 06:09:55 67° ESE 06:14:14 10° S visible
02 Feb ? 07:46:45 25° WNW 07:46:45 25° WNW 07:49:26 10° WSW visible
02 Feb ? 14:01:28 10° ENE 14:03:14 12° NE 14:04:59 10° NNE visible
02 Feb ? 15:34:20 10° SE 15:38:24 40° ENE 15:42:28 10° N visible
02 Feb ? 17:10:28 10° S 17:14:35 41° W 17:18:44 10° NNW visible
